Wetbulb
38.51 34.17 31.44 34.51 36.29 38.49 37.20 35.02 33.64 37.79 41.66 39.14 38.93 39.22 41.59 43.63 41.38 40.69 42.89 42.50 43.13 44.97 46.60 46.57 48.71 59.42 67.87 68.51 68.45 68.26 67.39 67.37 67.64 67.78 67.85 67.34 66.40 67.65 69.12 69.46 68.86 68.24 68.65 70.84
35.10 31.77 39.01 40.26 39.53 37.50 36.40 34.13 34.17 38.21 41.65 39.37 38.75 38.37 41.92 42.76 42.17 43.60 43.96 43.58 42.84 44.72 45.58 46.84 47.81 56.41 67.19 67.55 68.76 66.43 66.05 64.08 67.82 68.13 69.14 69.27 68.43 68.64 69.01 69.18 69.00 68.36 70.34 70.71
33.47 36.80 41.19 39.47 37.71 36.59 35.46 33.35 34.91 35.52 39.89 40.84 37.69 35.68 37.93 41.87 41.66 42.90 44.07 44.38 43.70 44.41 46.52 45.75 45.95 54.70 66.61 66.22 66.52 68.44 67.77 67.77 68.48 68.34 70.23 69.35 69.58 69.80 68.72 68.36 68.55 69.38 70.87 70.22
36.04 40.26 39.62 37.98 37.04 37.45 33.37 39.17 38.93 38.01 35.37 30.02 36.69 28.00 36.33 38.87 40.04 41.87 44.34 45.33 45.61 44.17 46.19 46.19 45.64 45.60 64.96 67.60 66.88 68.55 65.42 65.22 67.57 69.10 68.83 68.84 68.20 67.64 68.47 68.72 68.61 69.03 69.50 67.24
36.68 37.27 37.27 36.11 38.20 40.72 36.50 41.16 38.46 37.56 34.44 32.57 32.36 28.36 30.83 37.26 36.86 39.62 41.88 43.83 45.04 45.58 45.03 47.33 46.44 46.49 53.72 67.33 67.93 67.28 65.85 64.87 67.48 69.68 69.39 69.14 68.56 68.59 68.65 67.91 66.73 65.97 65.62 65.67
37.59 42.56 40.33 39.78 41.86 42.08 43.05 39.33 36.47 33.78 31.11 27.98 32.44 30.84 31.34 34.16 37.19 39.39 40.53 42.27 44.99 46.17 44.91 46.11 47.71 47.63 47.51 60.04 67.98 66.77 65.81 66.99 68.02 69.79 68.09 66.50 68.00 68.02 67.16 66.44 65.76 64.95 65.18 64.72
37.14 38.09 41.24 42.37 36.77 39.79 39.03 34.67 28.11 24.40 24.77 24.70 33.38 30.49 33.25 37.99 39.54 39.84 40.36 41.95 43.60 45.17 43.40 44.01 45.29 46.24 46.97 53.87 67.04 67.21 65.67 67.32 66.27 67.66 65.28 68.83 67.75 67.14 66.42 66.39 65.24 64.61 63.97 63.43
29.52 26.79 38.83 42.63 37.63 34.48 34.56 34.28 27.78 22.50 23.04 22.71 32.75 25.11 30.90 40.46 43.41 43.42 43.77 43.83 44.40 44.19 44.34 44.51 43.91 46.28 46.81 55.24 65.72 68.02 67.17 66.18 63.58 63.54 63.21 67.06 68.25 66.43 66.00 66.87 66.19 65.22 64.06 62.71
30.73 30.71 41.02 41.07 40.61 38.53 34.18 32.40 37.56 31.81 31.00 27.24 28.01 32.42 38.20 41.03 40.94 42.31 42.56 43.79 43.76 44.84 46.15 44.74 43.90 44.34 46.65 54.98 65.28 67.26 68.29 67.38 62.80 62.72 64.13 67.48 67.46 66.66 66.14 66.65 66.04 64.97 62.99 61.10
34.68 29.69 38.40 39.80 40.79 40.24 36.21 38.84 31.37 33.76 24.50 21.93 25.42 28.09 30.32 36.80 37.55 40.98 40.92 41.89 43.84 45.54 47.19 46.51 44.00 44.81 47.56 50.55 62.87 67.69 68.02 68.86 64.54 63.77 66.83 67.10 68.25 67.25 66.88 66.38 64.81 62.83 60.92 58.53
34.99 34.32 32.83 36.97 34.70 31.80 33.75 33.84 35.71 35.47 32.26 24.69 22.71 25.06 35.42 37.97 38.52 39.75 41.27 42.98 43.68 44.69 46.66 47.62 47.02 49.12 49.81 50.41 54.09 67.12 68.22 68.69 67.77 66.80 66.81 66.63 67.84 67.01 66.04 63.60 61.55 59.94 57.89 56.65
36.74 35.88 29.49 31.57 37.82 39.45 37.29 34.39 34.68 29.38 24.81 31.16 30.34 27.74 40.39 40.46 43.14 41.54 42.46 45.01 45.77 46.85 47.91 48.47 47.06 49.31 52.24 53.51 60.84 67.08 68.56 68.28 67.92 68.51 66.50 67.35 66.99 64.57 61.86 60.29 58.98 57.82 55.86 56.56
38.76 33.44 27.77 28.09 30.66 36.79 34.29 37.43 37.33 35.96 34.05 29.25 26.00 27.16 41.60 42.20 43.07 42.74 42.45 44.44 46.28 48.26 47.88 49.08 47.87 49.67 51.74 59.87 65.16 67.71 68.28 68.03 67.51 66.70 66.23 65.25 62.77 60.61 59.82 58.62 57.13 56.83 56.78 55.02
42.09 34.07 32.30 27.93 31.66 35.04 32.40 34.22 36.06 34.06 29.20 28.16 28.62 30.55 35.74 39.43 40.15 41.62 42.26 44.12 45.88 47.16 47.81 48.20 48.27 49.77 51.74 56.47 66.03 66.43 67.19 67.87 66.79 66.14 64.98 62.16 60.56 59.25 58.08 56.92 56.33 54.49 54.11 51.20
39.44 32.62 33.80 35.03 35.41 34.81 33.70 33.52 34.29 33.27 34.41 30.68 32.14 32.46 36.09 39.04 39.93 42.82 43.71 43.81 46.87 47.20 48.81 48.32 48.63 50.92 53.97 56.86 63.89 65.92 66.03 66.34 65.81 62.33 60.39 59.28 58.49 57.36 55.55 53.93 53.19 51.80 49.55 48.12
38.73 32.44 34.65 33.12 35.61 35.36 32.94 34.78 35.55 34.79 36.91 35.91 37.14 35.08 41.09 41.95 42.30 41.54 43.83 46.73 47.61 47.52 49.40 50.41 51.33 56.78 55.52 60.25 62.46 63.73 63.88 63.33 61.66 59.45 57.59 56.21 54.17 53.15 51.30 50.09 48.29 46.24 44.75 44.43
32.58 31.85 29.72 26.39 33.83 31.36 29.43 33.71 32.53 32.93 35.62 35.75 34.62 36.34 39.59 39.11 39.87 40.38 41.12 42.76 45.31 48.36 48.29 50.22 53.82 57.44 59.56 61.00 61.90 61.77 60.93 60.51 58.64 56.79 55.14 53.78 52.42 50.56 49.11 47.47 44.28 41.71 40.51 41.03
32.58 31.63 32.14 27.98 28.60 12.62 31.91 36.93 35.15 33.04 34.97 37.67 35.51 37.59 38.76 39.08 40.56 41.35 41.93 42.24 44.97 49.33 50.33 53.56 57.75 59.26 60.54 60.73 60.09 59.55 59.11 57.88 56.11 54.34 53.10 51.66 49.46 47.49 44.91 42.33 40.52 39.71 39.70 38.71
36.53 33.29 29.34 27.14 26.09 27.41 34.34 35.33 33.72 31.39 31.71 36.60 35.11 37.06 37.83 39.67 41.13 39.36 43.87 47.64 49.45 52.08 50.06 53.21 57.71 57.59 57.79 57.49 57.33 56.97 56.15 55.18 54.13 52.57 51.32 50.28 48.27 44.01 42.28 40.57 40.39 38.66 37.77 37.38
39.18 37.40 31.73 28.06 25.15 22.83 30.11 34.88 37.45 36.37 28.85 36.19 36.25 35.40 35.76 38.48 34.93 38.54 44.02 47.34 49.78 52.13 50.87 55.47 56.59 56.15 55.29 55.33 55.43 54.62 54.04 53.45 52.47 50.81 48.96 47.91 45.25 42.24 40.13 39.19 38.23 38.30 37.56 36.47
30.92 29.98 24.48 25.14 25.74 28.05 34.30 35.97 37.33 26.67 29.04 35.97 36.15 36.63 38.73 38.98 41.37 42.80 44.62 46.35 51.58 51.86 51.47 55.93 55.47 54.06 54.34 54.84 54.41 52.94 52.83 52.11 52.36 51.75 48.83 46.48 44.23 42.28 41.47 39.82 37.96 36.58 35.72 35.27
30.18 27.04 21.78 26.53 23.06 22.60 35.11 35.76 29.90 33.83 37.23 37.01 37.49 39.62 41.48 43.27 45.65 46.28 47.14 49.91 52.96 53.76 55.49 56.19 55.34 55.22 56.04 56.19 54.65 52.87 51.47 51.93 51.04 49.72 47.57 44.70 43.29 42.18 40.15 38.94 36.21 35.34 34.57 33.50
30.33 31.96 28.81 29.53 26.55 33.19 33.14 35.17 39.23 39.01 36.88 38.26 38.75 41.85 43.45 43.71 45.82 47.57 50.24 52.73 54.48 54.15 54.67 55.25 54.23 54.05 54.64 55.09 54.31 51.46 51.28 51.03 49.53 47.65 44.45 42.30 41.71 41.08 39.53 35.76 34.07 33.49 33.79 33.00
36.61 36.68 31.63 31.07 33.40 32.89 34.51 38.11 38.85 39.45 38.58 39.93 42.34 43.66 44.63 44.75 47.12 49.78 50.73 52.21 53.68 53.75 53.01 53.83 53.38 52.07 51.65 52.63 52.16 51.41 51.17 49.48 47.08 44.97 43.75 42.89 42.10 40.29 37.51 35.87 34.67 33.40 32.74 32.61
35.04 34.03 32.38 32.16 33.80 34.40 37.06 37.24 38.46 38.95 40.02 41.58 43.89 44.56 45.48 46.81 48.20 49.24 49.14 49.92 51.37 52.57 53.00 52.80 51.59 50.88 49.84 48.97 47.21 46.69 46.33 45.15 42.87 42.78 41.86 39.92 37.29 34.64 33.02 32.71 32.19 31.85 31.09 33.18
33.80 32.37 30.69 28.32 35.65 34.12 34.83 37.85 39.02 38.93 38.85 42.15 43.75 44.08 47.19 48.20 48.23 48.90 49.08 49.36 47.26 46.22 47.24 46.31 46.00 45.50 44.91 44.61 44.35 44.72 44.94 43.44 41.38 39.34 38.56 36.60 34.70 33.41 33.56 32.87 32.75 36.31 35.55 35.82
MSLP
1011.21 1012.10 1012.41 1012.13 1012.06 1011.96 1011.95 1011.91 1011.53 1010.48 1010.02 1009.70 1008.93 1007.91 1006.67 1006.16 1005.57 1005.25 1004.82 1004.78 1004.14 1003.55 1002.88 1003.51 1003.74 1003.08 1003.48 1003.90 1004.64 1005.36 1005.56 1005.17 1005.38 1005.76 1006.14 1006.42 1006.60 1007.22 1007.81 1008.22 1008.63 1009.04 1009.69 1009.97
1011.95 1012.02 1011.30 1011.22 1011.24 1011.41 1011.32 1011.22 1010.85 1010.00 1009.59 1009.30 1008.43 1007.17 1006.33 1005.72 1005.33 1004.81 1004.28 1004.04 1003.81 1003.31 1002.80 1003.09 1003.23 1003.09 1003.15 1003.33 1003.75 1004.52 1004.94 1004.41 1004.46 1005.24 1005.47 1005.44 1005.65 1006.39 1007.55 1007.87 1008.91 1009.19 1009.67 1010.08
1011.61 1011.05 1010.72 1010.97 1010.88 1010.88 1010.67 1010.62 1010.36 1009.91 1009.18 1008.75 1008.27 1006.61 1005.98 1005.36 1004.83 1004.29 1003.46 1003.02 1003.15 1002.95 1002.59 1002.74 1002.97 1002.86 1003.07 1003.44 1003.38 1003.65 1003.93 1004.08 1004.55 1005.01 1005.08 1005.50 1006.38 1006.15 1007.32 1008.47 1009.29 1009.55 1009.84 1010.50
1010.86 1010.35 1010.44 1010.53 1010.46 1010.26 1009.89 1009.73 1009.61 1009.56 1009.65 1008.91 1008.54 1005.50 1005.82 1005.24 1004.38 1003.96 1002.85 1002.29 1002.11 1002.19 1002.17 1002.30 1002.46 1002.71 1002.73 1002.85 1002.57 1003.08 1003.77 1004.23 1004.35 1004.53 1004.47 1004.90 1005.38 1005.89 1007.18 1007.98 1009.27 1009.73 1010.03 1011.20
1010.64 1010.42 1010.28 1010.07 1009.73 1009.48 1009.19 1009.10 1009.26 1009.45 1009.39 1008.94 1008.91 1008.32 1004.97 1004.59 1003.83 1003.14 1002.71 1001.91 1001.33 1001.19 1001.59 1001.49 1001.86 1001.74 1001.88 1001.95 1002.17 1002.18 1002.67 1003.26 1003.30 1003.47 1004.09 1004.88 1005.66 1006.53 1007.78 1007.75 1008.79 1010.41 1010.68 1011.21
1010.87 1010.08 1009.80 1009.39 1009.32 1009.40 1009.25 1009.27 1009.24 1009.48 1009.78 1008.77 1008.58 1008.11 1003.47 1004.00 1002.90 1002.13 1001.99 1001.53 1000.80 1000.51 1000.92 1000.85 1001.06 1001.10 1001.18 1001.19 1001.52 1001.72 1001.88 1002.11 1002.74 1003.39 1004.32 1004.96 1006.12 1007.13 1007.70 1009.38 1010.72 1011.54 1012.16 1011.53
1011.52 1010.35 1009.71 1009.47 1009.67 1009.59 1009.81 1010.41 1010.61 1010.53 1010.41 1008.44 1007.32 1006.85 1003.84 1002.94 1002.17 1001.85 1001.66 1001.22 1000.59 1000.19 1000.53 1000.50 1000.68 1000.96 1000.80 1000.71 1000.92 1001.12 1001.50 1001.86 1002.68 1003.39 1004.23 1004.83 1005.91 1007.48 1008.87 1009.72 1010.58 1011.69 1012.24 1011.86
1012.66 1011.35 1010.25 1009.93 1010.36 1010.48 1010.31 1010.86 1011.67 1010.93 1010.21 1009.16 1007.81 1005.88 1003.45 1001.91 1001.05 1001.13 1001.27 1001.12 1000.68 1000.40 1000.39 1000.25 999.84 1000.05 1000.06 1000.10 1000.44 1000.49 1000.89 1001.81 1002.37 1003.42 1004.72 1005.23 1006.11 1007.25 1008.07 1009.53 1010.50 1011.51 1012.05 1012.27
1013.15 1011.80 1010.40 1010.11 1009.59 1010.25 1010.36 1010.69 1010.59 1011.06 1010.28 1009.58 1007.18 1005.08 1003.21 1001.92 1001.34 1001.26 1001.14 1001.23 1000.98 1000.43 1000.24 999.98 999.65 999.55 999.44 999.64 999.88 1000.01 1000.48 1001.43 1002.14 1003.10 1004.17 1005.28 1006.10 1006.44 1006.72 1007.10 1010.06 1011.49 1011.90 1011.68
1013.33 1012.17 1010.69 1010.01 1009.92 1009.12 1009.48 1009.96 1010.85 1010.95 1009.96 1008.78 1006.65 1005.24 1003.64 1002.22 1001.63 1001.36 1001.28 1001.15 1000.79 1000.22 999.70 999.46 999.16 998.92 998.60 998.84 998.97 999.51 1000.04 1000.63 1001.69 1002.82 1003.72 1004.76 1005.87 1006.23 1006.94 1008.34 1010.33 1011.31 1012.22 1011.52
1013.49 1013.43 1011.54 1010.85 1009.88 1009.09 1009.44 1009.67 1010.35 1010.48 1009.92 1008.97 1007.01 1004.46 1002.87 1002.13 1001.67 1001.54 1001.33 1000.89 1000.52 1000.26 999.45 999.02 999.06 998.19 997.90 998.25 998.47 998.87 999.59 1000.41 1001.38 1002.50 1003.99 1004.69 1005.83 1006.80 1007.95 1009.16 1010.53 1011.76 1011.67 1013.36
1013.25 1013.14 1012.03 1010.53 1009.01 1009.09 1009.32 1009.42 1010.27 1010.15 1009.49 1008.62 1007.42 1003.75 1002.63 1002.31 1001.76 1001.35 1001.06 1000.44 1000.04 999.94 999.24 998.72 998.84 998.48 997.34 997.37 997.57 998.02 999.00 999.98 1000.87 1001.96 1003.32 1004.71 1005.78 1007.09 1008.52 1009.52 1010.64 1010.76 1012.02 1014.11
1013.15 1012.88 1012.12 1010.30 1009.37 1008.75 1008.95 1009.11 1009.67 1009.46 1009.14 1008.17 1007.38 1004.03 1002.44 1002.40 1001.57 1000.91 1000.93 1000.56 1000.09 999.45 998.98 998.52 998.37 998.34 996.94 996.95 996.56 997.58 998.32 999.70 1000.91 1001.61 1003.33 1004.93 1006.10 1007.24 1008.53 1009.79 1010.52 1011.95 1013.20 1014.69
1012.40 1012.02 1011.82 1010.95 1009.85 1009.61 1009.40 1009.10 1009.21 1009.20 1008.46 1007.15 1005.65 1003.88 1003.20 1002.38 1001.60 1001.07 1000.67 1000.28 999.79 999.53 999.23 998.60 998.21 998.30 996.55 996.59 996.38 997.11 998.26 999.50 1000.76 1001.59 1003.10 1004.88 1006.24 1007.63 1008.90 1010.16 1011.28 1012.46 1013.81 1015.10
1011.80 1011.57 1011.44 1010.67 1009.98 1009.34 1008.66 1008.56 1008.26 1008.05 1007.32 1006.48 1004.97 1004.32 1002.74 1002.58 1002.39 1001.66 1000.57 999.88 999.42 999.40 998.66 997.74 997.77 997.81 996.29 995.82 996.25 997.32 998.65 999.75 1000.94 1002.32 1003.79 1005.40 1007.11 1008.39 1009.61 1010.95 1012.25 1012.90 1014.74 1015.72
1011.88 1011.65 1011.29 1010.05 1008.93 1008.46 1008.07 1007.93 1007.83 1007.25 1006.48 1005.90 1005.16 1003.96 1003.46 1003.22 1002.97 1002.04 1001.16 1000.30 999.41 998.83 997.95 996.91 996.54 995.95 995.06 995.25 996.34 997.72 999.24 1000.31 1001.59 1002.85 1004.41 1006.24 1007.94 1009.46 1010.69 1012.38 1013.13 1014.72 1015.68 1016.97
1012.48 1012.47 1011.73 1009.46 1008.55 1008.22 1007.73 1007.46 1007.69 1007.33 1006.74 1006.45 1005.46 1004.90 1004.26 1003.47 1002.90 1002.04 1000.95 1000.05 998.98 997.81 997.52 996.65 995.35 994.26 994.06 995.23 996.73 998.60 999.95 1001.20 1002.52 1003.73 1005.70 1007.52 1009.08 1010.82 1012.04 1012.29 1013.65 1016.07 1017.01 1017.83
1012.41 1012.55 1011.93 1010.19 1009.27 1008.48 1007.64 1007.69 1007.74 1007.65 1006.65 1006.38 1006.22 1005.40 1004.63 1003.62 1002.56 1001.12 999.74 999.22 998.47 998.10 996.63 995.58 993.90 993.74 995.05 996.02 996.98 998.40 1000.30 1002.24 1003.58 1005.22 1006.98 1008.56 1009.94 1011.96 1013.90 1015.14 1015.11 1017.05 1017.85 1018.01
1012.13 1012.43 1011.93 1010.93 1010.01 1008.47 1007.70 1008.08 1008.40 1008.03 1006.63 1006.98 1006.37 1005.29 1004.20 1002.98 1001.77 999.18 998.16 997.97 997.82 997.30 996.13 995.28 994.29 994.11 996.19 997.09 997.87 999.78 1001.90 1003.54 1004.72 1006.13 1007.81 1009.72 1011.07 1012.71 1014.98 1015.21 1017.32 1018.98 1018.65 1018.42
1011.98 1012.10 1012.39 1011.58 1010.73 1009.19 1008.56 1008.33 1007.92 1007.79 1007.02 1006.62 1006.53 1005.30 1004.02 1002.50 1001.10 998.55 997.83 998.03 997.41 996.62 996.44 995.64 995.63 995.81 996.87 998.46 999.40 1000.92 1003.20 1004.81 1005.96 1007.46 1008.51 1010.14 1011.38 1011.98 1014.69 1016.92 1018.39 1019.64 1018.60 1018.77
1012.20 1012.11 1012.35 1011.86 1011.17 1009.14 1008.96 1008.33 1007.67 1008.17 1008.42 1007.01 1006.38 1004.90 1003.23 1001.96 1000.55 998.67 997.77 996.70 996.44 996.48 996.06 996.59 996.91 996.76 997.81 998.80 1000.19 1002.50 1004.04 1005.67 1007.25 1008.95 1010.24 1010.57 1011.47 1013.62 1015.20 1017.55 1019.25 1018.15 1018.87 1019.80
1012.82 1012.82 1012.68 1012.22 1011.54 1010.07 1009.42 1008.85 1009.87 1009.48 1008.26 1007.45 1005.97 1004.29 1002.49 1001.33 999.50 998.34 997.08 995.98 995.03 996.30 995.98 996.99 997.66 998.44 998.87 999.70 1000.71 1003.49 1005.12 1006.89 1007.89 1009.75 1011.61 1010.31 1012.82 1014.27 1016.76 1017.68 1019.04 1018.49 1019.58 1021.39
1012.77 1012.89 1012.80 1012.56 1010.77 1009.67 1009.95 1010.16 1009.71 1009.25 1008.19 1006.74 1005.48 1003.71 1002.25 1000.82 998.99 997.67 995.91 995.05 995.18 996.13 996.84 997.54 998.24 999.28 1000.59 1001.69 1001.38 1003.70 1006.47 1007.87 1008.92 1011.25 1011.90 1013.09 1014.86 1016.25 1017.23 1018.44 1018.92 1019.57 1021.01 1022.46
1012.52 1012.64 1012.62 1012.28 1010.51 1010.23 1009.73 1009.83 1009.60 1008.59 1007.78 1006.23 1004.76 1003.23 1001.58 1000.26 999.01 997.78 997.12 995.96 997.15 997.51 997.76 998.88 999.43 1000.19 1002.29 1003.32 1004.57 1005.78 1007.85 1009.13 1010.36 1011.72 1013.23 1014.87 1015.92 1016.94 1017.93 1018.89 1019.49 1020.66 1022.83 1023.67
1012.73 1012.87 1012.44 1011.60 1010.42 1010.55 1009.55 1009.79 1009.40 1008.21 1007.24 1005.88 1004.20 1002.75 1001.40 1000.06 999.19 998.60 998.69 998.05 998.42 998.82 999.45 1000.26 1000.87 1001.96 1003.81 1005.16 1006.58 1007.84 1009.33 1010.31 1011.83 1013.24 1014.80 1016.27 1017.64 1017.90 1018.71 1020.08 1021.95 1023.29 1024.00 1024.11
1012.37 1012.39 1012.38 1011.32 1011.04 1011.34 1010.22 1009.92 1009.13 1008.24 1007.10 1005.70 1004.31 1002.74 1001.49 1000.59 999.74 999.34 1000.01 999.96 1000.33 1001.20 1001.75 1002.50 1003.15 1004.10 1005.73 1007.09 1008.52 1009.74 1010.89 1011.48 1012.90 1014.74 1016.65 1017.74 1018.26 1019.03 1020.41 1022.18 1023.98 1024.78 1024.94 1024.85
Wind_Speed
2 2 7 12 10 14 12 11 12 12 11 6 13 17 18 12 9 11 12 8 9 11 6 4 8 9 9 12 17 17 18 15 10 7 9 7 7 5 4 4 6 6 6 7
2 7 16 11 9 8 11 13 14 9 9 6 14 18 18 13 11 15 15 11 8 10 8 1 6 7 9 15 15 13 15 10 10 8 3 3 7 5 3 4 4 6 7 6
8 10 3 7 5 7 7 7 10 13 17 12 11 16 12 8 7 8 11 11 6 10 12 4 5 8 7 12 16 16 13 12 11 11 7 5 2 6 4 5 4 4 8 6
7 6 4 7 8 7 15 10 12 11 8 12 4 22 15 9 14 13 19 19 17 10 8 5 5 6 9 12 15 17 12 13 9 9 7 11 6 6 3 7 6 6 9 7
9 4 8 8 13 12 13 13 14 12 11 14 3 9 2 4 12 14 14 18 17 13 10 10 9 10 10 10 12 15 14 10 8 9 8 8 8 6 5 8 12 7 7 8
5 6 5 6 3 1 7 6 4 1 2 14 11 12 10 8 14 9 7 12 16 15 7 8 7 7 9 8 12 12 13 12 9 11 11 12 10 9 10 9 8 6 4 6
6 4 1 4 4 6 7 5 4 4 1 9 7 12 19 7 7 8 9 10 13 13 6 8 7 7 8 10 11 13 16 14 12 12 11 15 15 14 13 11 8 7 4 6
3 7 6 7 6 6 7 7 4 7 4 5 5 7 8 15 17 10 8 10 9 9 7 9 10 8 9 11 12 15 18 16 13 13 12 12 17 12 12 12 6 6 6 7
4 6 14 19 20 3 2 5 5 5 6 8 6 7 7 10 10 4 3 3 7 10 10 9 10 9 9 10 13 15 16 17 14 15 12 12 11 14 13 16 12 8 10 10
4 12 9 6 4 10 9 6 3 4 5 6 5 5 7 4 1 3 4 6 8 9 12 10 8 9 8 9 13 16 15 19 19 17 14 14 15 14 13 12 10 8 8 14
3 5 5 6 6 5 1 2 2 4 4 4 5 5 6 6 4 5 7 8 8 8 10 11 7 4 6 10 10 16 16 18 19 19 16 17 14 15 15 14 15 13 13 10
7 4 7 16 18 10 9 11 5 4 4 4 3 11 9 4 5 5 8 10 10 9 10 8 7 7 4 7 12 16 17 18 20 20 21 20 17 14 14 14 15 15 15 9
4 3 6 9 6 2 2 4 8 8 6 12 9 7 2 7 8 10 10 11 13 11 11 11 7 7 3 5 13 17 18 19 19 21 21 18 17 17 17 15 16 15 15 10
8 7 12 12 13 7 9 12 14 8 5 10 18 23 15 17 20 14 15 14 13 9 11 10 7 8 4 5 13 16 17 17 17 20 20 18 17 18 18 17 17 17 13 12
6 6 8 12 19 20 21 20 18 16 17 13 19 17 17 9 11 19 20 15 9 9 12 10 10 10 7 8 13 18 15 17 16 19 20 19 18 19 19 18 17 17 13 11
3 3 4 7 19 18 21 13 10 15 12 11 14 19 8 8 11 14 16 15 9 13 12 14 14 10 6 12 15 20 16 18 19 20 21 21 20 19 19 17 17 14 14 10
1 2 3 7 7 10 7 6 5 13 13 10 8 5 12 13 15 15 18 18 18 15 10 17 16 7 13 14 21 21 19 18 20 23 22 21 21 19 17 19 20 12 12 10
4 2 3 8 8 3 4 5 5 13 19 8 11 13 16 15 17 20 23 19 16 11 11 14 9 14 17 19 23 23 21 20 22 22 22 22 23 21 15 15 18 13 11 11
4 2 4 5 3 8 8 5 9 11 11 2 12 15 19 18 18 23 17 7 7 4 6 9 14 25 21 23 25 25 23 22 23 24 24 21 21 24 16 18 15 9 12 13
4 4 4 3 5 5 2 14 12 10 6 16 19 20 21 21 10 15 8 9 7 5 3 8 18 25 27 24 26 26 22 21 22 21 25 24 23 22 22 15 14 9 13 13
4 2 3 4 5 7 6 12 12 3 7 22 20 23 21 16 10 16 18 20 9 7 3 12 21 26 27 28 29 25 23 20 20 20 19 23 24 22 19 16 12 14 14 14
3 3 3 3 4 7 7 4 6 7 12 16 20 22 20 19 18 13 15 16 7 11 13 21 22 22 24 26 29 25 24 21 22 23 17 23 22 18 14 16 12 15 14 13
4 4 3 5 6 3 1 7 7 13 17 13 19 19 19 17 16 15 9 4 18 20 18 21 22 23 20 20 26 29 20 21 23 23 22 19 20 17 16 15 15 12 11 9
3 2 4 3 3 5 11 6 11 15 17 21 19 18 16 13 11 5 11 12 16 16 21 21 25 28 24 23 23 25 23 22 23 23 22 19 18 16 15 11 10 11 8 7
2 1 4 7 10 10 3 10 14 19 18 19 18 16 13 11 5 13 17 15 13 16 20 19 21 24 24 22 22 22 21 23 22 21 18 17 12 14 14 13 9 7 4 5
5 4 3 5 4 7 11 13 18 16 19 18 16 16 12 7 11 17 19 16 14 17 17 19 22 25 23 23 21 20 19 22 23 20 15 12 12 13 13 12 11 17 13 15
Wind_Direction
343 51 254 247 226 253 274 269 258 270 271 293 283 268 279 289 296 280 275 242 256 274 266 129 206 211 152 166 171 185 189 182 167 167 165 158 160 152 163 167 159 142 128 135
358 241 252 265 270 247 255 263 272 277 270 261 276 274 278 273 263 268 274 270 246 273 287 325 182 208 173 173 176 181 197 182 175 177 176 127 161 136 146 112 126 125 128 126
214 245 254 264 263 295 283 238 259 265 283 275 276 274 265 286 238 272 274 262 236 239 272 277 183 200 197 175 182 187 190 184 185 173 141 105 80 84 93 94 98 113 115 110
224 251 205 293 282 256 275 255 263 265 262 272 139 291 270 262 260 242 259 266 269 238 241 217 207 204 201 203 193 188 179 187 176 168 157 157 155 128 154 126 113 100 100 100
263 273 289 278 265 285 279 272 253 255 263 280 202 272 184 196 263 253 246 257 258 247 215 235 199 192 218 208 204 188 181 186 175 165 157 139 131 109 105 98 95 93 101 118
261 256 225 241 311 65 331 333 300 93 161 258 239 225 259 246 248 271 233 251 265 273 235 246 209 203 198 224 188 198 181 190 176 168 148 127 138 125 115 116 117 136 129 106
312 284 306 42 0 328 31 37 326 309 234 261 208 228 244 260 239 225 249 263 257 262 266 248 219 206 180 200 192 188 195 190 178 169 140 130 123 118 116 115 124 145 139 115
330 327 14 3 300 252 282 168 192 281 253 272 333 254 255 231 252 263 260 273 283 287 289 265 241 202 182 188 203 185 193 197 172 166 144 138 142 141 137 131 150 154 154 135
309 264 310 293 293 184 205 196 185 251 242 268 222 271 295 261 260 234 274 289 297 291 288 274 240 212 183 185 194 190 192 190 174 176 145 144 147 166 168 146 153 154 163 108
246 286 275 296 325 265 193 183 211 202 249 250 276 249 243 256 249 3 323 319 305 300 304 294 248 221 199 190 188 192 176 183 179 172 157 152 156 152 151 135 134 150 144 115
189 228 283 328 216 230 9 252 227 243 234 255 289 251 233 245 199 249 276 277 274 272 288 305 245 178 199 188 184 182 169 175 172 164 156 155 156 142 142 133 134 138 106 111
202 227 264 274 271 284 268 252 234 243 229 232 282 262 274 208 277 313 302 291 292 269 275 280 253 272 83 199 172 171 170 166 170 157 153 157 147 133 129 125 117 112 106 112
176 226 302 312 352 27 228 188 216 234 250 238 251 257 107 302 313 306 301 277 279 283 291 291 282 227 136 202 163 163 163 168 162 146 146 138 134 124 120 117 111 112 108 112
184 250 236 256 267 272 277 270 272 244 243 261 240 270 268 286 299 302 292 275 266 257 267 275 282 267 179 168 159 155 157 161 152 138 133 127 122 122 120 118 113 109 109 112
183 256 214 245 260 267 267 275 280 269 260 256 272 266 261 259 294 299 289 284 266 268 275 270 266 235 216 133 153 143 148 146 135 124 120 116 119 119 116 110 113 102 106 100
40 280 297 271 260 261 268 263 277 273 287 300 283 269 297 326 326 316 318 311 289 267 269 275 272 216 178 137 141 135 140 138 131 120 115 114 113 113 110 110 94 101 96 100
151 269 278 267 334 308 252 165 310 311 295 307 291 310 314 314 309 300 293 283 277 273 288 272 250 185 128 127 125 127 132 124 119 116 115 115 113 109 106 109 101 102 97 103
180 242 257 289 325 348 175 108 357 324 293 353 337 315 315 302 294 278 271 262 267 295 277 283 134 112 108 117 114 117 117 121 119 117 118 118 112 100 100 96 98 105 109 97
184 202 288 290 271 276 175 34 339 324 292 81 322 324 315 306 296 277 264 242 270 261 306 289 129 116 119 120 115 115 120 122 123 122 118 115 112 115 107 101 105 110 106 93
227 217 233 309 277 277 42 329 314 299 265 351 333 316 308 306 285 281 297 328 307 163 138 128 127 118 115 112 110 109 112 120 119 120 118 119 120 108 112 111 113 121 99 91
301 331 229 266 272 280 359 325 315 13 316 322 312 303 300 304 289 279 301 305 291 154 102 146 122 117 119 114 108 103 104 105 104 104 107 119 107 107 105 114 126 101 91 88
280 306 270 263 270 282 9 333 5 312 298 298 300 303 306 306 292 289 276 267 246 144 146 132 120 116 111 120 114 110 103 105 107 103 109 106 108 107 116 108 102 94 95 94
258 208 255 218 245 308 17 311 308 308 306 305 306 304 301 301 299 301 274 10 112 117 132 117 116 107 103 111 114 109 111 115 109 112 107 104 106 111 106 109 103 94 92 96
248 139 243 320 244 285 308 310 321 318 316 310 303 304 304 301 301 42 60 61 106 117 112 117 114 104 104 104 104 109 118 115 111 112 114 112 106 103 101 96 87 89 102 111
241 191 250 254 285 324 342 338 321 318 317 314 317 318 315 326 51 79 72 64 62 107 108 108 105 104 105 104 105 107 111 112 108 106 105 101 99 95 87 69 75 89 56 100
176 219 224 261 310 303 290 312 311 313 316 316 320 326 353 4 79 80 86 68 68 75 87 96 98 96 100 101 101 106 112 111 113 109 107 109 102 96 93 95 87 62 86 86